| time (UTC) | temp F | wind direction | speed MPH | gust MPH | rain 1hr in | rain 24hr in | rain mn in | humidity % | barometer mb |
| 20260507154540 | 73 | 167 | 3.0 | 9.0 | 0.00 | 0.00 | 0.00 | 46 | 1002.0 |
| 20260507153039 | 73 | 175 | 5.0 | 11.0 | 0.00 | 0.00 | 0.00 | 48 | 1002.0 |
| 20260507151537 | 72 | 98 | 6.0 | 15.0 | 0.00 | 0.00 | 0.00 | 48 | 1002.0 |
| 20260507150040 | 72 | 133 | 5.0 | 12.0 | 0.00 | 0.00 | 0.00 | 46 | 1002.0 |
| 20260507144535 | 74 | 86 | 7.0 | 15.0 | 0.00 | 0.00 | 0.00 | 46 | 1002.0 |
| 20260507143043 | 75 | 188 | 4.0 | 14.0 | 0.00 | 0.00 | 0.00 | 46 | 1002.2 |
| 20260507141546 | 74 | 154 | 5.0 | 13.0 | 0.00 | 0.00 | 0.00 | 46 | 1002.1 |
| 20260507140034 | 73 | 169 | 6.0 | 12.0 | 0.00 | 0.00 | 0.00 | 48 | 1002.2 |
| 20260507134534 | 73 | 146 | 7.0 | 13.0 | 0.00 | 0.00 | 0.00 | 49 | 1002.2 |
| 20260507133052 | 73 | 146 | 5.0 | 16.0 | 0.00 | 0.00 | 0.00 | 46 | 1002.5 |
| 20260507131533 | 75 | 168 | 6.0 | 12.0 | 0.00 | 0.00 | 0.00 | 40 | 1002.7 |
| 20260507130034 | 74 | 173 | 5.0 | 11.0 | 0.00 | 0.00 | 0.00 | 43 | 1002.8 |
| 20260507124528 | 73 | 134 | 6.0 | 10.0 | 0.00 | 0.00 | 0.00 | 44 | 1003.0 |
| 20260507123036 | 70 | 142 | 7.0 | 12.0 | 0.00 | 0.00 | 0.00 | 46 | 1003.2 |
| 20260507121526 | 70 | 150 | 7.0 | 12.0 | 0.00 | 0.00 | 0.00 | 45 | 1003.3 |
| 20260507120025 | 72 | 94 | 5.0 | 11.0 | 0.00 | 0.00 | 0.00 | 43 | 1003.4 |
| 20260507114524 | 74 | 92 | 3.0 | 10.0 | 0.00 | 0.00 | 0.00 | 38 | 1003.5 |
| 20260507113023 | 73 | 209 | 3.0 | 8.0 | 0.00 | 0.00 | 0.00 | 42 | 1003.6 |
| 20260507111523 | 73 | 166 | 4.0 | 11.0 | 0.00 | 0.00 | 0.00 | 41 | 1003.7 |
| 20260507110021 | 74 | 79 | 6.0 | 10.0 | 0.00 | 0.00 | 0.00 | 40 | 1003.8 |
| 20260507104518 | 73 | 175 | 4.0 | 10.0 | 0.00 | 0.00 | 0.00 | 45 | 1003.9 |
| 20260507103015 | 72 | 341 | 2.0 | 7.0 | 0.00 | 0.00 | 0.00 | 43 | 1004.1 |
| 20260507101512 | 72 | 175 | 2.0 | 7.0 | 0.00 | 0.00 | 0.00 | 50 | 1004.2 |
| 20260507100009 | 71 | 177 | 3.0 | 8.0 | 0.00 | 0.00 | 0.00 | 51 | 1004.3 |
| 20260507094507 | 71 | 181 | 3.0 | 6.0 | 0.00 | 0.00 | 0.00 | 52 | 1004.5 |
| 20260507093005 | 70 | 55 | 2.0 | 8.0 | 0.00 | 0.00 | 0.00 | 54 | 1004.5 |
| 20260507091503 | 69 | 99 | 4.0 | 9.0 | 0.00 | 0.00 | 0.00 | 55 | 1004.6 |
| 20260507090105 | 68 | 192 | 3.0 | 8.0 | 0.00 | 0.00 | 0.00 | 55 | 1004.6 |
| 20260507084558 | 66 | 113 | 2.0 | 8.0 | 0.00 | 0.00 | 0.00 | 59 | 1004.6 |
| 20260507083048 | 64 | 71 | 2.0 | 6.0 | 0.00 | 0.00 | 0.00 | 67 | 1004.6 |
| 20260507081544 | 62 | 5 | 1.0 | 4.0 | 0.00 | 0.00 | 0.00 | 69 | 1004.4 |
| 20260507080040 | 62 | 136 | 1.0 | 4.0 | 0.00 | 0.00 | 0.00 | 73 | 1004.5 |
| 20260507074537 | 61 | 146 | 1.0 | 2.0 | 0.00 | 0.00 | 0.00 | 75 | 1004.5 |
| 20260507073034 | 60 | 146 | 0.0 | 2.0 | 0.00 | 0.00 | 0.00 | 76 | 1004.3 |
| 20260507071534 | 59 | 134 | 0.0 | 2.0 | 0.00 | 0.00 | 0.00 | 78 | 1004.2 |
| 20260507070041 | 58 | 126 | 1.0 | 3.0 | 0.00 | 0.00 | 0.00 | 80 | 1004.0 |
| 20260507064528 | 57 | 5 | 0.0 | 2.0 | 0.00 | 0.00 | 0.00 | 82 | 1003.8 |
| 20260507063028 | 57 | 5 | 0.0 | 3.0 | 0.00 | 0.00 | 0.00 | 82 | 1003.9 |
| 20260507061526 | 56 | 344 | 0.0 | 2.0 | 0.00 | 0.00 | 0.00 | 82 | 1003.9 |
| 20260507060030 | 56 | 327 | 0.0 | 2.0 | 0.00 | 0.00 | 0.00 | 82 | 1003.7 |
| 20260507054523 | 55 | 306 | 0.0 | 2.0 | 0.00 | 0.00 | 0.00 | 82 | 1003.6 |
| 20260507053022 | 55 | 306 | 0.0 | 1.0 | 0.00 | 0.00 | 0.00 | 81 | 1003.5 |
| 20260507051520 | 55 | 125 | 0.0 | 1.0 | 0.00 | 0.00 | 0.00 | 81 | 1003.5 |
| 20260507050026 | 55 | 355 | 0.0 | 2.0 | 0.00 | 0.00 | 0.00 | 80 | 1003.2 |
| 20260507044516 | 56 | 355 | 1.0 | 3.0 | 0.00 | 0.00 | 0.00 | 79 | 1003.0 |
| 20260507043014 | 56 | 348 | 0.0 | 2.0 | 0.00 | 0.00 | 0.00 | 78 | 1002.9 |
| 20260507041513 | 56 | 347 | 0.0 | 4.0 | 0.00 | 0.00 | 0.00 | 77 | 1002.8 |
| 20260507040010 | 56 | 344 | 1.0 | 3.0 | 0.00 | 0.00 | 0.00 | 77 | 1002.8 |
| 20260507034510 | 56 | 344 | 0.0 | 4.0 | 0.00 | 0.00 | 0.00 | 76 | 1002.5 |
| 20260507033010 | 57 | 171 | 0.0 | 6.0 | 0.00 | 0.00 | 0.00 | 77 | 1002.6 |
| 20260507031506 | 57 | 144 | 4.0 | 7.0 | 0.00 | 0.00 | 0.00 | 76 | 1002.2 |
| 20260507030005 | 57 | 130 | 3.0 | 6.0 | 0.00 | 0.00 | 0.00 | 75 | 1002.4 |
| 20260507024507 | 58 | 162 | 3.0 | 10.0 | 0.00 | 0.00 | 0.00 | 74 | 1002.3 |
| 20260507023002 | 57 | 134 | 6.0 | 10.0 | 0.00 | 0.00 | 0.00 | 74 | 1002.2 |
| 20260507021601 | 57 | 148 | 1.0 | 4.0 | 0.00 | 0.00 | 0.00 | 75 | 1002.4 |
| 20260507014605 | 58 | 160 | 2.0 | 6.0 | 0.00 | 0.00 | 0.00 | 76 | 1002.5 |
| 20260507013102 | 58 | 184 | 3.0 | 7.0 | 0.00 | 0.00 | 0.00 | 76 | 1002.4 |
| 20260507011558 | 58 | 168 | 5.0 | 7.0 | 0.00 | 0.00 | 0.00 | 76 | 1002.4 |
| 20260507010053 | 58 | 136 | 3.0 | 7.0 | 0.00 | 0.00 | 0.00 | 75 | 1002.4 |
| 20260507004552 | 59 | 168 | 5.0 | 10.0 | 0.00 | 0.00 | 0.00 | 75 | 1002.4 |
| 20260507003050 | 59 | 175 | 3.0 | 10.0 | 0.00 | 0.00 | 0.00 | 74 | 1002.3 |
| 20260507001549 | 59 | 205 | 3.0 | 10.0 | 0.00 | 0.00 | 0.00 | 74 | 1002.3 |
| 20260507000048 | 59 | 213 | 6.0 | 12.0 | 0.00 | 0.00 | 0.00 | 73 | 1002.4 |
| 20260506234553 | 59 | 192 | 5.0 | 10.0 | 0.00 | 0.00 | 0.00 | 74 | 1002.4 |
| 20260506233049 | 59 | 179 | 6.0 | 12.0 | 0.00 | 0.00 | 0.00 | 75 | 1002.3 |
| 20260506231544 | 59 | 189 | 4.0 | 9.0 | 0.00 | 0.00 | 0.00 | 74 | 1002.5 |
| 20260506230035 | 59 | 204 | 2.0 | 5.0 | 0.00 | 0.00 | 0.00 | 74 | 1002.7 |
| 20260506224534 | 59 | 184 | 0.0 | 5.0 | 0.00 | 0.00 | 0.00 | 74 | 1002.6 |
| 20260506223029 | 59 | 242 | 2.0 | 5.0 | 0.00 | 0.00 | 0.00 | 74 | 1002.4 |
| 20260506221527 | 59 | 192 | 2.0 | 5.0 | 0.00 | 0.00 | 0.00 | 75 | 1002.3 |
| 20260506220025 | 59 | 199 | 2.0 | 4.0 | 0.00 | 0.00 | 0.00 | 75 | 1002.1 |
| 20260506214525 | 59 | 246 | 2.0 | 4.0 | 0.00 | 0.00 | 0.00 | 75 | 1002.0 |
| 20260506213024 | 59 | 241 | 3.0 | 7.0 | 0.00 | 0.00 | 0.00 | 75 | 1002.0 |
| 20260506211525 | 59 | 232 | 1.0 | 4.0 | 0.00 | 0.00 | 0.00 | 76 | 1002.1 |
| 20260506210028 | 59 | 175 | 0.0 | 4.0 | 0.00 | 0.00 | 0.00 | 75 | 1001.9 |
| 20260506204522 | 59 | 190 | 2.0 | 4.0 | 0.00 | 0.00 | 0.00 | 75 | 1001.9 |
| 20260506203032 | 60 | 198 | 2.0 | 5.0 | 0.00 | 0.00 | 0.00 | 74 | 1001.8 |
| 20260506201521 | 60 | 195 | 2.0 | 6.0 | 0.00 | 0.00 | 0.00 | 73 | 1001.8 |
| 20260506200019 | 60 | 174 | 4.0 | 7.0 | 0.00 | 0.00 | 0.00 | 73 | 1001.8 |
| 20260506194520 | 60 | 182 | 2.0 | 6.0 | 0.00 | 0.00 | 0.00 | 73 | 1001.7 |
| 20260506193019 | 60 | 161 | 2.0 | 4.0 | 0.00 | 0.00 | 0.00 | 73 | 1001.5 |
| 20260506191521 | 60 | 148 | 1.0 | 5.0 | 0.00 | 0.00 | 0.00 | 72 | 1001.4 |
| 20260506190018 | 61 | 169 | 1.0 | 7.0 | 0.00 | 0.00 | 0.00 | 72 | 1001.2 |
| 20260506184518 | 61 | 180 | 4.0 | 7.0 | 0.00 | 0.00 | 0.00 | 71 | 1000.9 |
| 20260506183017 | 61 | 161 | 3.0 | 8.0 | 0.00 | 0.00 | 0.00 | 70 | 1000.7 |
| 20260506181516 | 62 | 153 | 4.0 | 9.0 | 0.00 | 0.00 | 0.00 | 69 | 1000.4 |
| 20260506180019 | 62 | 166 | 3.0 | 12.0 | 0.00 | 0.00 | 0.00 | 70 | 1000.2 |
| 20260506174519 | 62 | 178 | 4.0 | 13.0 | 0.00 | 0.00 | 0.00 | 69 | 1000.2 |
| 20260506173018 | 63 | 190 | 7.0 | 14.0 | 0.00 | 0.00 | 0.00 | 69 | 1000.2 |
| 20260506171515 | 64 | 169 | 8.0 | 16.0 | 0.00 | 0.00 | 0.00 | 68 | 1000.1 |
| 20260506170013 | 64 | 185 | 6.0 | 13.0 | 0.00 | 0.00 | 0.00 | 70 | 1000.2 |
| 20260506164510 | 65 | 178 | 5.0 | 14.0 | 0.00 | 0.00 | 0.00 | 67 | 1000.4 |
| 20260506163008 | 66 | 130 | 7.0 | 15.0 | 0.00 | 0.00 | 0.00 | 67 | 1000.6 |
| 20260506161507 | 66 | 166 | 8.0 | 19.0 | 0.00 | 0.00 | 0.00 | 66 | 1000.8 |
| 20260506160006 | 65 | 173 | 9.0 | 23.0 | 0.00 | 0.00 | 0.00 | 66 | 1000.8 |